Weather in Khromtau

Kazakhstan     50˚15′28″N   58˚25′58″E
temp.,
°C
wind,
m/s
gust,
m/s
humid.,
%
clouds,
%
prec.,
mm/h
press.,
hPa
HPBL,
m
28 november, sat
sat2823:00−10˚nnw239448 0.0 103021
02:00−10˚nw339312 0.0 103123
05:00−11˚nnw34906 0.0 103333
08:00−11˚nnw33890 0.0 103628
11:00−9˚wnw22880 0.0 103964
14:00−7˚wnw24870 0.0 1040164
17:00−9˚wnw33890 0.0 104222
20:00−10˚wnw22905 0.0 104421
29 november, sun
sun2923:00−10˚w11903 0.0 104521
02:00−11˚sw00890 0.0 104621
05:00−10˚sse118831 0.0 104821
08:00−11˚sse129059 0.0 104821
11:00−9˚se128937 0.0 105031
14:00−8˚se228573 0.0 1049109
17:00−10˚ese238860 0.0 105022
20:00−10˚ese229092 0.0 105123
30 november, mon
mon3023:00−11˚ese238994 0.0 105128
02:00−11˚e229086 0.0 105121
05:00−10˚ene349293 0.0 1051119
08:00−10˚ene3596100 0.3 1051142
11:00−10˚ene469796 0.3 1051218
14:00−9˚ene469271 0.0 1050265
17:00−12˚ne479655 0.0 1050126
20:00−13˚ne479760 0.0 1050132
1 december, tue
tue123:00−14˚ne479768 0.0 1050142
02:00−15˚ne589772 0.0 1049146
05:00−16˚ne599877 0.0 1048183
08:00−17˚ne6109784 0.0 1048200
11:00−16˚ne6109475 0.0 1048264
14:00−14˚ne699269 0.0 1046312
17:00−15˚ne6109570 0.0 1046222
20:00−16˚ne6109776 0.0 1045211
2 december, wed
wed223:00−17˚ne6109879 0.0 1045218
02:00−18˚ne6109878 0.0 1044192
05:00−18˚ne6119881 0.0 1043215
08:00−18˚ne6119894 0.0 1043208
11:00−17˚ne7109691 0.0 1042237
14:00−15˚nne699491 0.0 1040249
17:00−16˚nne6109792 0.0 1039234
20:00−17˚nne6109899 0.0 1039207